Regional Weather Roundup
Issued by NWS San Angelo, TX

Home | Current Version | Previous Version | Text Only | Print | Product List | Glossary On
Versions: 1 2 3 4 5 6 7 8 9 10 11 12 13 14 15 16 17 18 19 20 21 22 23 24 25 26 27 28 29 30 31 32 33 34 35 36 37 38 39 40 41 42 43 44 45 46 47 48 49 50
000
ASUS44 KSJT 280810
RWRSJT
WEST CENTRAL TEXAS REGIONAL WEATHER ROUNDUP
NATIONAL WEATHER SERVICE SAN ANGELO TX
300 AM CDT SUN MAY 28 2017

NOTE: "FAIR" INDICATES FEW OR NO CLOUDS BELOW 12,000 FEET WITH NO
SIGNIFICANT WEATHER AND/OR OBSTRUCTIONS TO VISIBILITY.

TXZ049-054-064>066-071>073-076>078-098-099-113-114-127-128-139-140-
154-155-168>170-280900
...LOCATIONS ACROSS WEST CENTRAL TEXAS...

CITY           SKY/WX    TMP DP  RH WIND       PRES   REMARKS
SAN ANGELO     CLEAR     77  67  71 SW8       29.84S
ABILENE        CLEAR     82  64  54 NW12G21     N/A
DYESS AFB      PTCLDY    78  66  66 NW17G26   29.85R
JUNCTION       CLOUDY    79  74  84 S5        29.86S
SWEETWATER     PTCLDY    76  60  59 N15       29.95R
BROWNWOOD      MOCLDY    77  73  88 SE7       29.82F
COLEMAN        SUNNY     77  68  74 S6        29.83S
SONORA         CLEAR     70  68  94 CALM      29.91F FOG
OZONA            N/A     72  68  88 NE3       29.90F FOG
BRADY          NOT AVBL
$$

TEXAS PANHANDLE/OKLAHOMA PANHANDLE

CITY           SKY/WX    TMP DP  RH WIND       PRES   REMARKS
AMARILLO       CLEAR     52  47  83 N10       30.11R
BORGER         CLEAR     55  49  80 N3        30.10S
CANADIAN       CLEAR     56  52  85 N6        30.06R
DALHART        CLOUDY    55  45  68 N15       30.15R
DUMAS          SUNNY     52  46  79 N17       30.11S
GUYMON         NOT AVBL
HEREFORD       SUNNY     53  47  81 N8        30.13R
PAMPA          SUNNY     53  49  86 N8        30.07F
PERRYTON       MOCLDY    56  50  79 N9        30.05F
$$

SOUTHERN PANHANDLE/SOUTH PLAINS/ROLLING PLAINS

CITY           SKY/WX    TMP DP  RH WIND       PRES   REMARKS
LUBBOCK        CLEAR     60  48  64 NE22G33   30.03R
SNYDER         MOCLDY    74  60  60 NE17G26   29.96R
CHILDRESS      CLEAR     65  53  65 N16       30.01R
SEMINOLE       CLOUDY    71  53  51 NE23G31   30.00R
$$

PERMIAN BASIN

CITY           SKY/WX    TMP DP  RH WIND       PRES   REMARKS
MIDLAND        MOCLDY    76  63  64 SW6       29.91F
ODESSA         CLOUDY    76  63  64 W5        29.93S
WINK           CLOUDY    82  14   8 E3        29.90R
$$

FAR WEST/SOUTHWEST MOUNTAINS/TRANS PECOS

CITY           SKY/WX    TMP DP  RH WIND       PRES   REMARKS
ALPINE         CLOUDY    71  49  44 SW3       30.09F
DRYDEN           N/A     78  69  73 N6        29.85F
EL PASO        PTCLDY    71   8   8 S3        29.99S
FORT STOCKTON  CLOUDY    79  62  56 S8        29.93S
GUADALUPE PASS CLOUDY    74  13   9 S5        30.12S
MARFA          PTCLDY    70  33  25 CALM      30.10R
PECOS          CLOUDY    71  29  21 W7        29.91S
$$

DALLAS/FORT WORTH METROPLEX

CITY           SKY/WX    TMP DP  RH WIND       PRES   REMARKS
DFW AIRPORT    MOCLDY    81  73  76 S14       29.71F
FTW MEACHAM    CLEAR     81  74  79 S14G22    29.71F
DAL-EXECUTIVE  PTCLDY    80  72  76 S9        29.72F
GRAND PRAIRIE  CLEAR     79  70  74 S10G18    29.74F
ADDISON        CLOUDY    80  72  76 S9        29.74F
MESQUITE       CLOUDY    78  69  75 S13       29.74F
LANCASTER      MOSUNNY   77  70  78 S10       29.76F
$$

NORTH CENTRAL TEXAS

CITY           SKY/WX    TMP DP  RH WIND       PRES   REMARKS
SHRMAN/DENISON TSTM      66  64  93 W17G23    29.82R
GAINESVILLE    HVY RAIN  66  65  94 SW12      29.85R
BRIDGEPORT     PTSUNNY   83  72  69 NW6       29.78R
DENTON         CLOUDY    77  65  66 N16       29.80R
WAXAHACHIE     CLOUDY    77  72  82 S9        29.77F
GRANBURY       SUNNY     82  73  76 NE6       29.77R
$$

WESTERN NORTH TEXAS

CITY           SKY/WX    TMP DP  RH WIND       PRES   REMARKS
WICHITA FALLS  CLOUDY    75  60  59 N21G29    29.83R
VERNON         SUNNY     74  55  51 N22G32    29.92R
BRECKENRIDGE   SUNNY     82  70  66 NW5       29.80R
COMANCHE       CLEAR     80  74  83 SW13G18   29.81R
$$

CENTRAL AND SOUTH CENTRAL TEXAS

CITY           SKY/WX    TMP DP  RH WIND       PRES   REMARKS
AUSTIN/BERGSTM MOCLDY    77  73  87 S13       29.79F
WACO           PTCLDY    76  72  87 S8        29.79R
HILLSBORO      CLOUDY    77  73  86 S13       29.78F
TEMPLE         NOT AVBL
KILLEEN-GRAY   PTCLDY    75  72  89 S7        29.79S
FORT HOOD      CLOUDY    74  71  89 S12       29.77R
GEORGETOWN     CLOUDY    75  70  83 S9        29.82R
LAGO VISTA     FAIR      76  72  88 SW9G18    29.84S
SAN MARCOS       N/A    N/A N/A N/A MISG        N/A
NEW BRAUNFELS  CLOUDY    75  72  90 W3        29.82F
RANDOLPH AFB   CLOUDY    75  75 100 S6        29.83F
SAN ANTONIO    CLOUDY    77  72  84 S12       29.83F
STINSON        CLOUDY    77  73  87 SE5       29.80F
PLEASANTON     NOT AVBL
LA GRANGE      CLOUDY    79  76  92 S9G18     29.78F
GIDDINGS       CLOUDY    76  73  90 S7G18     29.81F
$$

EAST TEXAS

CITY           SKY/WX    TMP DP  RH WIND       PRES   REMARKS
PARIS          CLOUDY    66  61  82 NW20G28   29.90R THUNDER
CLARKSVILLE    NOT AVBL
TYLER          CLOUDY    76  74  93 S15       29.79F
LONGVIEW       MOCLDY    76  73  91 S18G25    29.78F
PALESTINE      PTSUNNY   75  73  92 S6        29.83S
NACOGDOCHES    MOCLDY    75  72  88 S8        29.83F
$$

TEXAS HILL COUNTRY AND EDWARDS PLATEAU

CITY           SKY/WX    TMP DP  RH WIND       PRES   REMARKS
LLANO          SUNNY     77  73  88 CALM      29.86F
HORSESHOE BAY  NOT AVBL
KERRVILLE      CLOUDY    76  74  92 S7        29.86F
FREDERICKSBRG  PTCLDY    75  69  82 S7        29.86F
ROCKSPRINGS    PTSUNNY   75  73  94 S8        29.91F FOG
HONDO          PTCLDY    77  74  90 SE8       29.82F
UVALDE         MOSUNNY   74  73  94 CALM      29.83R
DEL RIO        CLEAR     77  70  79 E7        29.79R
$$

SOUTHEAST TEXAS

CITY           SKY/WX    TMP DP  RH WIND       PRES   REMARKS
COLLEGE STN    CLOUDY    76  74  93 S13       29.81F
CALDWELL       NOT AVBL
CROCKETT       PTSUNNY   73  72  94 S8        29.85F
BRENHAM        CLOUDY    79  75  85 S10       29.82F
HUNTSVILLE     MOCLDY    79  72  79 S12G21    29.85S
CONROE         CLOUDY    79  74  84 S10       29.86F
HOUSTON BUSH   CLOUDY    82  74  76 S8        29.86F
HOUSTON HOBBY  CLOUDY    79  75  87 S7        29.85F
PERLAND        CLOUDY    82  75  79 S6        29.87F
WHARTON        MOSUNNY   78  74  88 S7        29.86S
$$

THE UPPER TEXAS COAST

CITY           SKY/WX    TMP DP  RH WIND       PRES   REMARKS
ORANGE         CLOUDY    81  78  91 SW13G20   29.90R
PORT ARTHUR    CLOUDY    80  75  84 SW8       29.88R
GALVESTON      CLOUDY    82  78  88 S16G24    29.87F
ANGLETON       CLOUDY    82  78  88 S13       29.86F
BAY CITY       CLOUDY    80  77  91 S8        29.85F
$$

TEXAS COASTAL BEND, RIO GRANDE PLAINS DEEP SOUTH TEXAS

CITY           SKY/WX    TMP DP  RH WIND       PRES   REMARKS
VICTORIA       CLOUDY    79  76  90 S13       29.83F
BEEVILLE       FAIR     N/A N/A N/A S8        29.83F
ROCKPORT       CLOUDY    81  75  82 S7        29.84F
PORT ARANSAS   CLOUDY    80  76  87 S15G21    29.84F
PORT LAVACA    CLOUDY    79  78  96 S9        29.85F
CORPUS CHRISTI MOCLDY    81  77  88 S10       29.84F
KINGSVILLE NAS CLOUDY    81  78  91 S13       29.83F
COTULLA        CLOUDY    82  73  74 SE7       29.78R
LAREDO         MOCLDY    81  73  76 SE23G32   29.76F
BROWNSVILLE    CLOUDY    83  78  85 S12       29.84F
PORT ISABEL    CLOUDY    82  78  88 S13       29.83F
HEBBRONVILLE   CLOUDY    76  74  93 CALM      29.85F
MCALLEN        CLOUDY    82  77  84 S12       29.83F
WESLACO        CLOUDY    80  77  90 S9        29.82F
FALFURRIAS     CLOUDY    79  76  91 SE3       29.83F
EDINBURG       CLOUDY    82  76  82 S7        29.83F
$$



USA.gov is the U.S. government's official web portal to all federal, state and local government web resources and services.